Miscellaneous Local Product
Issued by NWS Hastings, NE

Home | Current Version | Previous Version | Text Only | Print | Product List | Glossary Off
Versions: 1 2 3 4 5 6 7 8 9 10 11 12 13 14 15 16 17 18 19 20 21 22 23 24 25 26 27 28 29 30 31 32 33 34 35 36 37 38 39 40 41 42 43 44 45 46 47 48 49 50

000
AXUS43 KGID 182202
MISGRI

GID CWA HOURLY WEATHER ROUNDUP
NATIONAL WEATHER SERVICE HASTINGS NE
500 PM CDT SAT APR 18 2015

NOTE: "FAIR" INDICATES FEW OR NO CLOUDS BELOW 12,000 FEET WITH NO
SIGNIFICANT WEATHER AND/OR OBSTRUCTIONS TO VISIBILITY.

...SOUTH CENTRAL NEBRASKA...

CITY           SKY/WX    TMP DP  RH WIND       PRES   REMARKS
GRAND ISLAND   PTSUNNY   68  53  58 SE8       29.80F
HASTINGS       MOSUNNY   70  54  56 VRB7      29.77F
KEARNEY        PTSUNNY   66  54  63 E13       29.76F THUNDER
ORD            PTSUNNY   67  51  56 E6        29.79F
YORK           CLOUDY    66  59  77 SE14      29.80F
AURORA         CLOUDY    68  56  65 SE10      29.79F
LEXINGTON      SUNNY     68  52  55 E6        29.77F
HOLDREGE       MOSUNNY   71  46  40 CALM      29.77F
HEBRON         CLOUDY    72  55  55 SE13      29.78F

...NEBRASKA PANHANDLE...

CITY           SKY/WX    TMP DP  RH WIND       PRES   REMARKS
CHADRON        CLOUDY    50  46  86 N8        29.90F
ALLIANCE       MOSUNNY   59  40  49 N5        29.84F
SCOTTSBLUFF    MOSUNNY   60  32  34 N6        29.86S
SIDNEY         CLOUDY    51  34  52 NW5       29.87S

...WESTERN AND NORTH CENTRAL NEBRASKA...

CITY           SKY/WX    TMP DP  RH WIND       PRES   REMARKS
VALENTINE      MOSUNNY   66  47  50 N8        29.82F
AINSWORTH      PTSUNNY   63  53  69 E5        29.83F
ONEILL         CLOUDY    64  57  79 E9        29.83F
BROKEN BOW     LGT RAIN  70  47  43 SE12      29.78F
IMPERIAL       PTSUNNY   62  44  51 SE12      29.77F
NORTH PLATTE   LGT RAIN  65  47  52 E6        29.78F
MCCOOK         MOSUNNY   71  42  35 SE7       29.74F

...EASTERN NEBRASKA...

CITY           SKY/WX    TMP DP  RH WIND       PRES   REMARKS
NORFOLK        NOT AVBL
SO SIOUX CITY  CLOUDY    62  57  83 SE10      29.84F
TEKAMAH        CLOUDY    63  59  87 S9        29.82F
COLUMBUS       CLOUDY    64  55  72 SE12      29.82F
ALBION         CLOUDY    66  54  66 SE9       29.81F
OMAHA EPPLEY   LGT RAIN  61  58  90 E10       29.82F
OFFUTT AFB     LGT RAIN  61  58  90 E9        29.81F
MILLARD        LGT RAIN  61  58  90 CALM      29.79F
LINCOLN        CLOUDY    65  56  72 SE10      29.82F
NEBRASKA CITY  CLOUDY    62  61  96 E10       29.84S
BEATRICE       CLOUDY    67  58  74 SE10      29.82F
FALLS CITY     CLOUDY    62  59  90 E9        29.83F

...NORTHERN KANSAS...

CITY           SKY/WX    TMP DP  RH WIND       PRES   REMARKS
GOODLAND       PTSUNNY   56  44  64 E5        29.77F
HILL CITY      MOSUNNY   70  49  47 NE6       29.72F
NORTON         MOCLDY    70  43  37 E9        29.72F
PHILLIPSBURG   SUNNY     72  54  53 N9        29.72F
SMITH CENTER   PTSUNNY   64  39  39 E15G25    29.75F
BELOIT         CLOUDY    59  46  63 S15G29    29.80R
HAYS           CLOUDY    57  46  67 SE15G22   29.77R THUNDER
RUSSELL        CLOUDY    61  47  59 SE14G26   29.75S
CONCORDIA      MOSUNNY   72  52  49 SE5       29.75F
SALINA         LGT RAIN  61  51  70 W18       29.80S
TOPEKA         CLOUDY    66  58  75 SE8       29.83F



USA.gov is the U.S. government's official web portal to all federal, state and local government web resources and services.